Location: Pedimozza
(42.0500°N, 9.3500°E)
Time: 07:45:23
(UTC+00:00)

Cosmos 883 Rocket - Pass Details

Date: 19 August 2019
Orbit: 950 x 996 km, 83.0° (Epoch: 21 September)

Event Time Altitude Azimuth Distance (km) Brightness Sun altitude
Exits shadow 20:48:29 35° 191° (S) 1,554 5.2 -24.4°
Maximum altitude 20:51:24 84° 276° (W) 1,006 4.5 -24.8°
Drops below altitude 10° 20:57:48 10° 6° (N) 2,768 7.4 -25.5°
Sets 21:00:20 0° 8° (N) 3,718 8.1 -25.8°
